Home > Weather > Puerto Williams > Past weeks

Flag for Chile Weather for the Past 2 Weeks in Puerto Williams, Chile

Now
48 °F

Rain. Broken clouds.


Feels Like: 41 °F
Forecast: 42 / 52 °F
Wind: 22 mph from West

Location: Ushuaia Aerodrome

Current Time: Feb 11, 2016 at 10:42:01 AM

Latest Report: Feb 11, 2016 at 10:00 AM


Visibility: N/A

Pressure: 29.24 "Hg

Humidity: 76%

Dew point: 41 °F

Location of Puerto WilliamsLocation

Historic Weather in Puerto Williams — Graph

°F

Puerto Williams Temperature Yesterday

Maximum temperature yesterday: 54 °F (at 6:00 PM)
Minimum temperature yesterday: 39 °F (at 12:00 AM)
Average temperature yesterday: 47 °F

High & Low Weather Summary for the Past Weeks

 TemperatureHumidityPressure
High68 °F (Feb 6, 3:00 PM)100% (Feb 1, 2:00 AM)30.12 "Hg (Feb 1, 2:00 AM)
Low34 °F (Feb 4, 1:00 PM)36% (Jan 30, 1:00 PM)29.12 "Hg (Feb 9, 1:00 AM)
Average52 °F68%29.68 "Hg
* Reported Jan 27 9:00 AM — Feb 11 9:00 AM, Puerto Williams, Weather by CustomWeather, © 2016

Note: Actual official high and low records may vary slightly from our data, if they occured in-between our weather recording intervals... More about our weather records

Advertising

Puerto Williams Weather History for the Previous 24 Hours

 ConditionsComfort  
Time TempWeatherWind HumidityBarometerVisibility
9:00 AM
Thu, Feb 11
50 °FScattered showers. Broken clouds.14 mph67%29.27 "HgN/A
8:00 AM50 °FPartly sunny.10 mph76%29.27 "HgN/A
7:00 AM50 °FScattered showers. Scattered clouds.18 mph82%29.27 "HgN/A
6:00 AM50 °FDrizzle. Partly sunny.20 mph82%29.27 "HgN/A
5:00 AM50 °FPassing clouds.13 mph82%29.30 "HgN/A
4:00 AM50 °FPassing clouds.7 mph76%29.30 "HgN/A
3:00 AM50 °FPassing clouds.No wind76%29.30 "HgN/A
2:00 AM50 °FPassing clouds.No wind76%29.30 "HgN/A
1:00 AM50 °FPassing clouds.No wind76%29.33 "HgN/A
12:00 AM50 °FScattered showers. Partly cloudy.No wind76%29.33 "HgN/A
11:00 PM
Wed, Feb 10
50 °FPartly cloudy.No wind71%29.33 "HgN/A
10:00 PM50 °FPartly cloudy.No wind76%29.36 "HgN/A
9:00 PM50 °FPassing clouds.No wind82%29.36 "HgN/A
8:00 PM50 °FPartly sunny.No wind76%29.39 "HgN/A
7:00 PM52 °FPartly sunny.No wind72%29.42 "HgN/A
6:00 PM54 °FPartly sunny.2 mph67%29.42 "HgN/A
5:00 PM52 °FPartly sunny.2 mph72%29.45 "HgN/A
3:00 PM50 °FDrizzle. Partly sunny.2 mph67%29.50 "HgN/A
2:00 PM48 °FDrizzle. Partly sunny.2 mph71%29.53 "HgN/A
1:00 PM48 °FDrizzle. Broken clouds.9 mph71%29.53 "HgN/A
12:00 PM48 °FBroken clouds.14 mph66%29.56 "HgN/A
11:00 AM48 °FBroken clouds.18 mph66%29.56 "HgN/A
10:00 AM46 °FScattered showers. Scattered clouds.23 mph71%29.59 "HgN/A
Weather by CustomWeather, © 2016

See weather overviewHow to use our weather pages